[[{"header":{"parameterUnit":"m.s-1","parameterCategory":2,"la1":30.2992,"la2":30.254,"lo1":-89.0895,"lo2":-89.0443,"dy":0.0025,"dx":0.0025,"nx":19,"ny":19,"refTime":"2026-03-25T03:00:00:Z","depth":"0","parameterNumber":2,"parameterNumberName":"U-component_of_CURRENTS"},"data":[0,0,0,-0.364,-0.3644,-0.3812,-0.3813,-0.3831,-0.3831,0,0,0,0,0,0,0,0,0,0,0,-0.3545,-0.3545,-0.364,-0.3644,-0.3812,-0.3813,-0.3831,-0.3831,0,0,0,0,0,0,0,0,0,0,0,-0.3545,-0.3545,-0.3545,-0.3645,-0.3812,-0.3813,-0.3831,-0.3754,0,0,0,0,0,0,0,0,0,0,-0.3616,-0.3574,-0.3545,-0.3545,-0.3646,-0.3812,-0.3813,-0.3753,-0.3759,-0.3697,0,-0.3698,0,-0.3774,-0.3827,-0.3827,0,0,0,-0.3649,-0.3569,-0.3599,-0.3545,-0.3647,-0.3811,-0.3738,-0.3758,-0.3765,-0.3704,-0.37,-0.3703,-0.3774,-0.3827,-0.3826,-0.3963,-0.3965,0,0,-0.3639,-0.3594,-0.3595,-0.3602,-0.3654,-0.3732,-0.3743,-0.3764,-0.3758,-0.37,-0.3706,-0.3774,-0.3826,-0.3826,-0.3961,-0.3963,0,0,0,-0.361,-0.3587,-0.3622,-0.3599,-0.365,-0.3737,-0.3749,-0.3758,-0.3765,-0.3707,-0.3775,-0.3826,-0.3825,-0.3959,-0.3962,-0.3936,0,0,0,-0.3604,-0.357,-0.3616,-0.3594,-0.365,-0.374,-0.3741,-0.3762,-0.377,-0.3774,-0.3826,-0.3825,-0.3957,-0.396,-0.3932,-0.3791,0,0,0,-0.3544,-0.3566,-0.357,-0.3591,-0.3666,-0.3743,-0.3754,-0.3767,-0.3809,-0.3827,-0.3825,-0.3955,-0.396,-0.3929,-0.3791,-0.3617,0,0,0,-0.3513,-0.3553,-0.3568,-0.3653,-0.3663,-0.3831,-0.3755,-0.3863,-0.3893,-0.3826,-0.3957,-0.3961,-0.3928,-0.379,-0.362,-0.3372,-0.3338,0,0,-0.356,-0.3557,-0.3618,-0.3639,-0.3776,-0.381,-0.3941,-0.3925,-0.3939,-0.393,-0.3935,-0.3934,-0.379,-0.3618,-0.3635,-0.3592,0,0,0,-0.3637,-0.3652,-0.3711,-0.3782,-0.3897,-0.392,-0.3993,-0.4007,-0.4035,-0.3977,-0.4034,-0.3944,-0.3833,-0.3697,-0.3666,-0.3571,-0.3983,-0.3982,-0.3982,-0.3561,-0.366,-0.3733,-0.3835,-0.3921,-0.4018,-0.402,-0.4045,-0.4108,-0.4146,-0.4004,-0.3951,-0.3822,-0.3791,-0.3705,-0.4166,-0.4166,-0.4166,-0.4166,-0.3557,-0.3574,-0.3675,-0.3772,-0.3818,-0.3901,-0.3977,-0.4009,-0.3959,-0.4085,-0.3981,-0.3779,-0.3753,-0.3674,-0.4166,-0.4166,-0.4166,-0.4166,-0.4166,-0.3472,-0.3479,-0.3552,-0.3605,-0.3645,-0.3755,-0.3671,-0.378,-0.3837,-0.3772,-0.3558,-0.3556,-0.3393,-0.3737,-0.3736,-0.3734,-0.3733,-0.3732,-0.3732,-0.3294,-0.3377,-0.3333,-0.342,-0.341,-0.341,-0.3475,-0.3418,-0.3369,-0.3414,-0.3413,-0.3378,-0.3815,-0.3725,-0.3712,-0.3716,-0.3718,-0.372,-0.3721,-0.3103,-0.314,-0.3071,-0.3044,-0.3003,-0.2882,-0.3026,-0.2888,-0.2844,-0.2748,-0.2858,-0.3202,-0.3121,-0.3148,-0.3044,-0.2853,-0.2853,-0.2853,-0.2852,-0.2898,-0.2935,-0.2763,-0.2657,-0.2559,-0.26,-0.232,-0.2318,-0.2354,-0.2332,-0.2457,-0.2574,-0.2613,-0.2513,-0.2554,-0.2444,-0.2106,-0.2105,-0.2104,-0.2652,-0.2668,-0.2456,-0.243,-0.2344,-0.2223,-0.1962,-0.1873,-0.1957,-0.2078,-0.237,-0.2402,-0.2598,-0.2666,-0.2543,-0.2608,-0.2442,0,0]},{"header":{"parameterUnit":"m.s-1","parameterCategory":2,"la1":30.2992,"la2":30.254,"lo1":-89.0895,"lo2":-89.0443,"dy":0.0025,"dx":0.0025,"nx":19,"ny":19,"refTime":"2026-03-25T03:00:00:Z","depth":"0","parameterNumber":3,"parameterNumberName":"V-component_of_CURRENTS"},"data":[0,0,0,0.0237,0.0242,0.053,0.0532,0.0833,0.0835,0,0,0,0,0,0,0,0,0,0,0,0.0123,0.0123,0.0236,0.0242,0.053,0.0532,0.0833,0.0835,0,0,0,0,0,0,0,0,0,0,0,0.0122,0.0123,0.0124,0.0243,0.0529,0.0532,0.0832,0.064,0,0,0,0,0,0,0,0,0,0,0.0372,0.0265,0.0123,0.0124,0.0245,0.0529,0.0532,0.0632,0.0652,0.0673,0,0.069,0,0.076,0.0851,0.0851,0,0,0,0.0276,0.0249,0.032,0.0124,0.0247,0.0529,0.041,0.0644,0.0666,0.0699,0.0694,0.0707,0.0765,0.0852,0.0853,0.1016,0.1016,0,0,0.026,0.0192,0.0304,0.0333,0.0284,0.04,0.0418,0.0658,0.0667,0.0696,0.0715,0.077,0.0854,0.0855,0.1016,0.1016,0,0,0,0.0192,0.018,0.0248,0.0319,0.0372,0.0408,0.0429,0.0657,0.0677,0.0719,0.0773,0.0855,0.0858,0.1016,0.1016,0.0841,0,0,0,0.0184,0.0138,0.024,0.0205,0.0366,0.0528,0.0421,0.0661,0.0691,0.0772,0.0855,0.086,0.1016,0.1016,0.0846,0.0717,0,0,0,0.0116,0.0132,0.0152,0.02,0.0311,0.0526,0.0563,0.067,0.0722,0.0852,0.0861,0.1016,0.1016,0.085,0.0727,0.0658,0,0,0,0.0057,0.004,0.015,0.0158,0.0308,0.0444,0.0563,0.0701,0.0804,0.0856,0.1016,0.1016,0.0851,0.0733,0.0664,0.0675,0.0648,0,0,-0.0006,0.0031,0.0037,0.0141,0.0187,0.0409,0.0488,0.0679,0.0812,0.0938,0.0944,0.0844,0.0728,0.0659,0.0682,0.0653,0,0,0,-0.0009,-0.0035,0.0013,0.0063,0.0219,0.0331,0.0549,0.0659,0.0808,0.087,0.0896,0.0829,0.079,0.0812,0.0791,0.1067,0.1017,0.1017,0.1017,-0.0233,-0.0149,-0.0161,-0.0057,0.0047,0.0292,0.0402,0.0585,0.0736,0.0781,0.0726,0.0602,0.0627,0.061,0.0896,0.0802,0.0801,0.0801,0.0801,-0.0404,-0.0419,-0.0321,-0.0304,-0.0148,-0.0053,0.0231,0.0366,0.049,0.0632,0.0605,0.0676,0.0576,0.089,0.079,0.0792,0.0793,0.0794,0.0795,-0.0573,-0.0566,-0.055,-0.0521,-0.0461,-0.0243,-0.0153,0.0076,0.0278,0.0275,0.0356,0.036,0.06,0.0279,0.0278,0.0278,0.0277,0.0276,0.0276,-0.0731,-0.0713,-0.0759,-0.0721,-0.0698,-0.0607,-0.0363,-0.0261,-0.0049,0.0137,0.014,0.0605,0.0443,0.0421,0.0262,0.0264,0.0266,0.0267,0.0268,-0.089,-0.087,-0.0937,-0.0945,-0.0903,-0.0854,-0.0664,-0.0443,-0.0329,-0.0245,0.0371,0.0105,0.0157,0.0179,0.0154,-0.0066,-0.0066,-0.0066,-0.0066,-0.0988,-0.099,-0.105,-0.1069,-0.1072,-0.0943,-0.0824,-0.0517,-0.0003,0.0304,0.0391,0.057,0.0571,0.066,0.0671,0.0664,0.0578,0.0579,0.058,-0.107,-0.1069,-0.112,-0.1125,-0.1123,-0.1032,-0.0859,-0.0396,0.0351,0.0638,0.0767,0.0739,0.1041,0.1021,0.12,0.1193,0.1195,0,0]}],[{"header":{"parameterUnit":"m.s-1","parameterCategory":2,"la1":30.2992,"la2":30.254,"lo1":-89.0895,"lo2":-89.0443,"dy":0.0025,"dx":0.0025,"nx":19,"ny":19,"refTime":"2026-03-25T03:00:00:Z","depth":"2","parameterNumber":2,"parameterNumberName":"U-component_of_CURRENTS"},"data":[0,0,0,-0.2652,-0.2654,-0.2775,-0.2775,-0.3038,-0.304,0,0,0,0,0,0,0,0,0,0,0,-0.2618,-0.2619,-0.2651,-0.2654,-0.2775,-0.2775,-0.3037,-0.304,0,0,0,0,0,0,0,0,0,0,0,-0.2618,-0.2619,-0.262,-0.2654,-0.2775,-0.2775,-0.3037,-0.292,0,0,0,0,0,0,0,0,0,0,-0.2791,-0.2715,-0.2619,-0.262,-0.2655,-0.2774,-0.2775,-0.2914,-0.2928,-0.3011,0,-0.3033,0,-0.304,-0.3059,-0.306,0,0,0,-0.2662,-0.2703,-0.2761,-0.262,-0.2656,-0.2774,-0.2722,-0.2921,-0.2937,-0.303,-0.3036,-0.3045,-0.3044,-0.3061,-0.3063,-0.3454,-0.3456,0,0,-0.2655,-0.2621,-0.2749,-0.2771,-0.2695,-0.2719,-0.2726,-0.2929,-0.2937,-0.3037,-0.3051,-0.3049,-0.3063,-0.3065,-0.3452,-0.3455,0,0,0,-0.2631,-0.2616,-0.2666,-0.2761,-0.2773,-0.2722,-0.2731,-0.2928,-0.2952,-0.3053,-0.3052,-0.3065,-0.3068,-0.345,-0.3453,-0.3314,0,0,0,-0.2627,-0.2602,-0.2663,-0.2641,-0.2768,-0.283,-0.2724,-0.2938,-0.296,-0.3051,-0.3065,-0.3071,-0.3448,-0.3452,-0.3313,-0.3186,0,0,0,-0.2611,-0.2599,-0.2621,-0.264,-0.269,-0.2827,-0.2861,-0.2942,-0.296,-0.3061,-0.3072,-0.3446,-0.3451,-0.3311,-0.3189,-0.3104,0,0,0,-0.2563,-0.2592,-0.262,-0.2673,-0.2689,-0.2822,-0.2859,-0.2963,-0.305,-0.3066,-0.3448,-0.3453,-0.3311,-0.319,-0.3107,-0.2918,-0.2891,0,0,-0.2573,-0.2592,-0.2632,-0.266,-0.2774,-0.2806,-0.2929,-0.3047,-0.3166,-0.3384,-0.3393,-0.3313,-0.3189,-0.3105,-0.3212,-0.3173,0,0,0,-0.262,-0.2654,-0.2701,-0.2768,-0.286,-0.2928,-0.3046,-0.308,-0.3252,-0.324,-0.3457,-0.3385,-0.3332,-0.3232,-0.3206,-0.3477,-0.3476,-0.3476,-0.3475,-0.2579,-0.2656,-0.2726,-0.284,-0.2923,-0.3036,-0.3067,-0.3172,-0.3303,-0.3368,-0.3379,-0.3363,-0.3266,-0.3241,-0.3542,-0.3542,-0.3542,-0.3541,-0.3541,-0.2579,-0.26,-0.2723,-0.2818,-0.2918,-0.3024,-0.3114,-0.3159,-0.322,-0.3351,-0.331,-0.3227,-0.3201,-0.3533,-0.3534,-0.3536,-0.3536,-0.3537,-0.3538,-0.25,-0.2514,-0.26,-0.2706,-0.2814,-0.2964,-0.2938,-0.3024,-0.3097,-0.3072,-0.3028,-0.3029,-0.3143,-0.3107,-0.3106,-0.3105,-0.3104,-0.3104,-0.3103,-0.2333,-0.2423,-0.2445,-0.2586,-0.2641,-0.2705,-0.2806,-0.2793,-0.2805,-0.2844,-0.2844,-0.3215,-0.3229,-0.3124,-0.309,-0.3092,-0.3094,-0.3095,-0.3096,-0.2188,-0.2221,-0.2229,-0.227,-0.2373,-0.2314,-0.2473,-0.2445,-0.2462,-0.241,-0.2702,-0.2716,-0.2717,-0.2742,-0.2631,-0.2469,-0.2469,-0.2469,-0.2469,-0.2046,-0.2078,-0.202,-0.2007,-0.2032,-0.2106,-0.1967,-0.199,-0.2118,-0.2145,-0.2159,-0.2236,-0.2268,-0.2252,-0.2288,-0.2172,-0.189,-0.1889,-0.1889,-0.1922,-0.1927,-0.1819,-0.184,-0.1868,-0.185,-0.1667,-0.1538,-0.1637,-0.1871,-0.211,-0.242,-0.258,-0.2611,-0.2634,-0.2673,-0.2505,0,0]},{"header":{"parameterUnit":"m.s-1","parameterCategory":2,"la1":30.2992,"la2":30.254,"lo1":-89.0895,"lo2":-89.0443,"dy":0.0025,"dx":0.0025,"nx":19,"ny":19,"refTime":"2026-03-25T03:00:00:Z","depth":"2","parameterNumber":3,"parameterNumberName":"V-component_of_CURRENTS"},"data":[0,0,0,-0.0338,-0.0335,-0.0212,-0.0211,-0.0077,-0.0076,0,0,0,0,0,0,0,0,0,0,0,-0.038,-0.0379,-0.0338,-0.0335,-0.0212,-0.0211,-0.0077,-0.0076,0,0,0,0,0,0,0,0,0,0,0,-0.038,-0.0379,-0.0378,-0.0335,-0.0212,-0.0211,-0.0077,-0.0162,0,0,0,0,0,0,0,0,0,0,-0.0277,-0.0336,-0.0379,-0.0378,-0.0334,-0.0212,-0.0211,-0.0165,-0.0156,-0.0143,0,-0.0128,0,-0.0104,-0.0068,-0.0068,0,0,0,-0.0323,-0.0344,-0.0293,-0.0378,-0.0333,-0.0213,-0.0264,-0.016,-0.015,-0.0131,-0.0126,-0.012,-0.0102,-0.0068,-0.0067,0.0089,0.009,0,0,-0.033,-0.0371,-0.03,-0.0287,-0.0306,-0.0268,-0.0261,-0.0153,-0.0157,-0.0125,-0.0117,-0.01,-0.0067,-0.0066,0.0089,0.009,0,0,0,-0.0358,-0.0377,-0.0328,-0.0293,-0.0272,-0.0265,-0.0256,-0.0161,-0.014,-0.0115,-0.0098,-0.0066,-0.0065,0.0088,0.0089,-0.0038,0,0,0,-0.0361,-0.0393,-0.0331,-0.0356,-0.0274,-0.0217,-0.0267,-0.0147,-0.0134,-0.0099,-0.0066,-0.0064,0.0087,0.0088,-0.0036,-0.0108,0,0,0,-0.0384,-0.0396,-0.0379,-0.0359,-0.0308,-0.0218,-0.0191,-0.0144,-0.0125,-0.0068,-0.0063,0.0086,0.0088,-0.0035,-0.0104,-0.0091,0,0,0,-0.0433,-0.0451,-0.038,-0.0399,-0.031,-0.0266,-0.0191,-0.0152,-0.0111,-0.0066,0.0087,0.0089,-0.0035,-0.0102,-0.0089,-0.0041,-0.0045,0,0,-0.0489,-0.0459,-0.047,-0.0405,-0.0408,-0.0282,-0.0259,-0.017,-0.0064,0.0049,0.0054,-0.0037,-0.0104,-0.0091,0.0081,0.0073,0,0,0,-0.0511,-0.0523,-0.0512,-0.0493,-0.0424,-0.0351,-0.0249,-0.0182,-0.0055,-0.0028,0.0043,0.0006,0.0017,0.0053,0.0048,0.0099,0.0099,0.0098,0.0098,-0.0633,-0.0598,-0.0625,-0.0571,-0.0526,-0.0394,-0.0322,-0.0185,-0.0105,-0.0043,-0.0039,-0.0037,0.0003,-0.0001,0.004,0.004,0.0039,0.0039,0.0039,-0.0746,-0.0762,-0.0706,-0.072,-0.0612,-0.056,-0.0381,-0.0295,-0.0158,-0.0085,-0.0067,-0.0009,-0.0015,0.003,0.0032,0.0033,0.0034,0.0035,0.0035,-0.0843,-0.0842,-0.0841,-0.0833,-0.0776,-0.0645,-0.0559,-0.0417,-0.0265,-0.0234,-0.0109,-0.0105,-0.0148,-0.0195,-0.0195,-0.0196,-0.0196,-0.0196,-0.0196,-0.093,-0.0926,-0.0958,-0.0939,-0.0918,-0.0847,-0.0665,-0.0567,-0.0364,-0.0227,-0.0225,-0.0115,-0.0107,-0.0156,-0.02,-0.0199,-0.0199,-0.0199,-0.0198,-0.1031,-0.1013,-0.1067,-0.1072,-0.1037,-0.0984,-0.0834,-0.0585,-0.0457,-0.0344,-0.0192,-0.0191,-0.0137,-0.0129,-0.0174,-0.0221,-0.0221,-0.0221,-0.0221,-0.1079,-0.1083,-0.1128,-0.1146,-0.1138,-0.1036,-0.0866,-0.0583,-0.0319,-0.0177,-0.0179,-0.0129,-0.0129,-0.0071,-0.0064,-0.0105,-0.0135,-0.0135,-0.0134,-0.1122,-0.1126,-0.1162,-0.1176,-0.1171,-0.1072,-0.0877,-0.0492,-0.0136,-0.0133,-0.0185,-0.0211,-0.0139,-0.0138,-0.0045,-0.0037,-0.0101,0,0]}],[{"header":{"parameterUnit":"m.s-1","parameterCategory":2,"la1":30.2992,"la2":30.254,"lo1":-89.0895,"lo2":-89.0443,"dy":0.0025,"dx":0.0025,"nx":19,"ny":19,"refTime":"2026-03-25T03:00:00:Z","depth":"4","parameterNumber":2,"parameterNumberName":"U-component_of_CURRENTS"},"data":[0,0,0,-0.1468,-0.1471,-0.1623,-0.1624,-0.172,-0.172,0,0,0,0,0,0,0,0,0,0,0,-0.1422,-0.1423,-0.1468,-0.1471,-0.1623,-0.1624,-0.172,-0.172,0,0,0,0,0,0,0,0,0,0,0,-0.1421,-0.1422,-0.1424,-0.1472,-0.1623,-0.1624,-0.172,-0.163,0,0,0,0,0,0,0,0,0,0,-0.1495,-0.1464,-0.1422,-0.1424,-0.1473,-0.1623,-0.1624,-0.1627,-0.1636,-0.1621,0,-0.1654,0,-0.1683,-0.1724,-0.1724,0,0,0,-0.1475,-0.1457,-0.1498,-0.1424,-0.1474,-0.1623,-0.1556,-0.1633,-0.1642,-0.1632,-0.1656,-0.166,-0.1685,-0.1724,-0.1725,-0.1836,-0.1837,0,0,-0.1467,-0.1447,-0.1491,-0.1504,-0.1524,-0.1551,-0.1561,-0.164,-0.1652,-0.1657,-0.1663,-0.1687,-0.1725,-0.1725,-0.1835,-0.1836,0,0,0,-0.144,-0.1441,-0.1482,-0.1499,-0.1532,-0.1555,-0.1566,-0.1649,-0.1663,-0.1664,-0.1688,-0.1725,-0.1726,-0.1835,-0.1836,-0.1879,0,0,0,-0.1435,-0.1425,-0.1478,-0.1467,-0.1531,-0.1605,-0.1573,-0.1658,-0.1668,-0.1687,-0.1725,-0.1726,-0.1834,-0.1835,-0.1876,-0.1877,0,0,0,-0.1413,-0.1422,-0.1443,-0.1465,-0.1529,-0.1605,-0.1625,-0.1661,-0.1681,-0.1724,-0.1726,-0.1833,-0.1835,-0.1873,-0.1873,-0.194,0,0,0,-0.1381,-0.1407,-0.1443,-0.1487,-0.1528,-0.1631,-0.1625,-0.1704,-0.1747,-0.1725,-0.1834,-0.1836,-0.1872,-0.1871,-0.1937,-0.167,0,0,0,-0.1387,-0.1407,-0.1433,-0.1469,-0.1572,-0.1609,-0.1705,-0.1755,-0.1768,-0.1799,-0.1803,-0.1877,-0.1873,-0.1939,-0.1785,0,0,0,0,-0.1417,-0.145,-0.1485,-0.156,-0.1632,-0.1721,-0.1783,-0.1793,-0.1858,-0.1802,-0.1904,-0.19,-0.194,-0.1778,-0.1845,-0.1845,-0.1845,-0.1844,-0.1844,-0.1413,-0.1468,-0.1532,-0.1626,-0.17,-0.1805,-0.186,-0.1894,-0.19,-0.1939,-0.1956,-0.206,-0.1891,-0.1988,-0.1989,-0.1989,-0.1989,-0.1989,-0.1989,-0.1435,-0.1455,-0.1565,-0.1644,-0.175,-0.1842,-0.1933,-0.196,-0.2038,-0.2009,-0.2048,-0.1858,-0.1994,-0.1993,-0.1993,-0.1992,-0.1992,-0.1991,-0.1991,-0.1396,-0.1408,-0.1495,-0.1616,-0.1737,-0.1852,-0.1935,-0.2014,-0.2074,-0.2124,-0.1984,-0.2101,-0.2075,-0.2168,-0.2169,-0.2169,-0.2169,-0.217,-0.217,-0.1296,-0.1386,-0.1434,-0.1573,-0.1653,-0.1769,-0.1941,-0.2004,-0.2102,-0.2002,-0.2154,-0.2121,-0.2115,-0.2087,-0.2175,-0.2174,-0.2173,-0.2173,-0.2173,-0.1204,-0.1252,-0.1315,-0.1388,-0.1556,-0.1637,-0.1841,-0.1907,-0.1967,-0.1942,-0.1943,-0.1953,-0.1915,-0.1914,-0.1877,-0.1907,-0.1904,-0.1901,0,-0.1107,-0.1141,-0.1206,-0.1283,-0.1372,-0.1543,-0.1576,-0.1688,-0.1773,-0.17,-0.1979,-0.1978,-0.1983,-0.1938,-0.1933,-0.1887,0,0,0,-0.1033,-0.107,-0.1064,-0.1167,-0.1276,-0.1395,-0.1571,-0.1544,-0.1751,-0.173,-0.1823,-0.1843,-0.2059,-0.219,-0.2156,-0.2149,-0.2102,0,0]},{"header":{"parameterUnit":"m.s-1","parameterCategory":2,"la1":30.2992,"la2":30.254,"lo1":-89.0895,"lo2":-89.0443,"dy":0.0025,"dx":0.0025,"nx":19,"ny":19,"refTime":"2026-03-25T03:00:00:Z","depth":"4","parameterNumber":3,"parameterNumberName":"V-component_of_CURRENTS"},"data":[0,0,0,-0.0461,-0.0461,-0.0458,-0.0458,-0.0436,-0.0435,0,0,0,0,0,0,0,0,0,0,0,-0.0463,-0.0463,-0.046,-0.0461,-0.0458,-0.0458,-0.0436,-0.0435,0,0,0,0,0,0,0,0,0,0,0,-0.0463,-0.0463,-0.0463,-0.0461,-0.0458,-0.0458,-0.0436,-0.0441,0,0,0,0,0,0,0,0,0,0,-0.0445,-0.0467,-0.0463,-0.0463,-0.0461,-0.0458,-0.0458,-0.0441,-0.0441,-0.0433,0,-0.0438,0,-0.0437,-0.0434,-0.0434,0,0,0,-0.0455,-0.0468,-0.0453,-0.0463,-0.0461,-0.0458,-0.0458,-0.0441,-0.044,-0.0431,-0.0438,-0.0437,-0.0437,-0.0434,-0.0434,-0.0482,-0.0483,0,0,-0.0456,-0.0474,-0.0454,-0.0453,-0.0467,-0.0458,-0.0458,-0.0441,-0.0451,-0.0438,-0.0436,-0.0437,-0.0434,-0.0433,-0.0482,-0.0483,0,0,0,-0.0459,-0.0475,-0.046,-0.0453,-0.0455,-0.0458,-0.0458,-0.0452,-0.0443,-0.0436,-0.0436,-0.0433,-0.0433,-0.0481,-0.0482,-0.0521,0,0,0,-0.0459,-0.0477,-0.0461,-0.0473,-0.0456,-0.0461,-0.047,-0.0445,-0.0443,-0.0436,-0.0433,-0.0433,-0.048,-0.0482,-0.0518,-0.0496,0,0,0,-0.0462,-0.0477,-0.0476,-0.0474,-0.0473,-0.0461,-0.0452,-0.0444,-0.0443,-0.0434,-0.0433,-0.048,-0.0481,-0.0516,-0.0494,-0.0404,0,0,0,-0.0481,-0.0509,-0.0477,-0.0514,-0.0473,-0.05,-0.0452,-0.0471,-0.0471,-0.0433,-0.048,-0.0482,-0.0515,-0.0492,-0.0404,-0.0401,0,0,0,-0.0528,-0.0515,-0.0537,-0.0508,-0.0548,-0.0499,-0.0541,-0.0515,-0.0492,-0.0481,-0.0483,-0.0519,-0.0494,-0.0404,-0.0501,0,0,0,0,-0.056,-0.0572,-0.0583,-0.0594,-0.0595,-0.0584,-0.0565,-0.0551,-0.0543,-0.05,-0.0542,-0.0525,-0.0466,-0.0468,-0.049,-0.049,-0.049,-0.0489,-0.0489,-0.0615,-0.0615,-0.0655,-0.0654,-0.0665,-0.0648,-0.0631,-0.0605,-0.0597,-0.0605,-0.0575,-0.0558,-0.0571,-0.0617,-0.0617,-0.0618,-0.0618,-0.0618,-0.0618,-0.0676,-0.0694,-0.0693,-0.0735,-0.0714,-0.0731,-0.0686,-0.0666,-0.0602,-0.0629,-0.057,-0.0537,-0.0622,-0.0622,-0.0621,-0.062,-0.062,-0.062,-0.062,-0.0714,-0.072,-0.0744,-0.0779,-0.0788,-0.0773,-0.073,-0.0691,-0.0614,-0.0575,-0.0506,-0.0539,-0.0506,-0.0532,-0.0532,-0.0531,-0.0531,-0.0531,-0.053,-0.073,-0.0751,-0.0791,-0.0821,-0.0843,-0.083,-0.0751,-0.0673,-0.0583,-0.0514,-0.0556,-0.0526,-0.0529,-0.0499,-0.0524,-0.0525,-0.0526,-0.0526,-0.0527,-0.0758,-0.0763,-0.0829,-0.0862,-0.0898,-0.0873,-0.0807,-0.061,-0.0495,-0.0382,-0.0452,-0.0458,-0.0409,-0.0413,-0.0378,-0.0367,-0.0366,-0.0366,0,-0.0758,-0.0769,-0.0846,-0.0904,-0.0921,-0.0896,-0.0748,-0.0626,-0.0471,-0.0478,-0.0491,-0.0581,-0.0581,-0.0541,-0.0544,-0.0511,0,0,0,-0.0753,-0.0784,-0.0839,-0.0908,-0.0937,-0.0792,-0.0703,-0.0625,-0.0518,-0.0382,-0.0365,-0.0365,-0.0519,-0.0503,-0.044,-0.0443,-0.039,0,0]}]]